SCOUT A DEB, 2777

Orbit data source: Space-Track

SCOUT A DEB, 2777 is space debris in LEO originally from a launch on Fri, 14 Apr 1967 UTC launched from the Air Force Western Test Range (AFWTR). Debris objects in space refer to the collection of defunct objects orbiting the Earth. Examples of debris include non-operational satellites, rocket bodies, and fragments generated from explosions, collisions, or faulty payload assembly.

Loading next visibility...
Identifier
2777, 1967-034C
Orbit
LEO
Country
Flag of USUS
Related business
Manufacturer
Unknown
Mission
Spacecraft
Bus & Motor
Unknown
Mass
Unknown
Launch date (UTC)
1967-04-14 (59 years ago)
Launch vehicle
Unknown
Launch site
Air Force Western Test Range (AFWTR)
Object type
Payload
Rocket body
Debris
Shape & HBR
Unknown shape, 0.1 m
Radar Cross Section
Medium (>0.1 m² and <1 m²)

Expand to show TLE details & history
Last TLE update: 12 hours ago

TLE from 12 hours ago
0 SCOUT A DEB
1  2777U 67034C   26177.63245558  .00000496  00000-0  27439-3 0  9991
2  2777  90.2938 245.7165 0132821  76.9622 284.6349 14.05768002 10432
Epoch: 2026-06-26T15:10Z
TLE epoch observation values (Epoch: 2026-06-26T15:10:44.162Z)
Latitude
-0.00002°
Longitude
103.27432°
Altitude
853.787 km
Speed
7.437 km/s
True Right ascension
16h 22m 51s
True Declination
0° 00' 00"
Sunlit
Object was in full shadow at epoch
Visualization orbit readout
Latitude
Unknown
Longitude
Unknown
Altitude
Unknown
Speed
Unknown
Apparent Right ascension
Unknown
Apparent Declination
Unknown
Sunlit
N/A
Visualization observer readout
Local Sidereal Time
14:01:46
Azimuth
Unknown
Elevation
Unknown
Doppler factor
Unknown
Orbital elements
Apogee altitude
967.14 km
Perigee altitude
774.576 km
Semi-major axis
7,248.995 km
Eccentricity
0.01328
Inclination
90.2938°
RAAN
245.7165°
Arg. of periapsis
76.9622°
True anomaly
283.15623°
Mean anomaly
284.6349°
Eccentric anomaly
283.89616°
Mean motion
3.51663 °/min
Orbital period
102.37 mins
BSTAR
0.00027439
Loading maneuver chart data...
Computing Atmospheric mass density...
Loading historical data...
Loading historical data...
Loading historical data...
Loading historical data...
Loading historical data...
Loading historical data...
Loading historical data...

Documentation

Showing up to 5 results
|